www.pogodaiklimat.ru

Погода и климат >> Архив погоды >> Узбекистан >> Бухара


ПОГОДА в Бухаре

  • Прогноз погоды в Бухаре
  • Монитор погоды в Бухаре

АРХИВ ПОГОДЫ в Бухаре

Время (UTC), дата Ветер
(напр.,м/с)
 
Видим.   Явления Облачность Т
(С)
Тd
(С)
f
(%)
Тe
(С)
Тes
(С)
Комфортность P
(гПа)
Po
(гПа)
Тmin
(С)
Tmax
(С)
R
(мм)
R24
(мм)
S
(см)
15 18.08 С 3 10 км ясно +26.2 +9.5 35 +27 +27 жарко 1011.7 986.1 +33.2
18 18.08 С 4 10 км ясно +23.4 +8.6 39 +25 +25 комфорт 1012.5 986.6 +33.2
21 18.08 С 2 10 км ясно +20.0 +7.8 45 +22 +22 комфорт 1012.7 986.4
00 19.08 С 5 10 км ясно +19.1 +9.7 54 +20 +20 1012.6 986.2 +1.6
03 19.08 С 5 10 км ясно +21.6 +10.0 48 +23 +25 комфорт 1013.2 987.2
06 19.08 С 8 10 км ясно +29.8 +10.6 30 +30 +32 жарко 1012.7 987.3 +17.8
09 19.08 С 9 10 км ясно +34.7 +6.1 17 +32 +34 жарко 1011.3 986.3
12 19.08 С 7 10 км ясно +34.8 +5.3 16 +32 +34 жарко 1010.7 985.7
15 19.08 С 5 10 км ясно +27.5 +8.2 30 +27 +27 жарко 1011.8 986.2 +35.0
18 19.08 В 4 10 км ясно +24.0 +7.0 34 +24 +24 комфорт 1012.6 986.7 +35.0
21 19.08 С 3 10 км ясно +22.0 +8.9 43 +23 +23 комфорт 1012.5 986.4
00 20.08 С 3 10 км ясно +20.2 +9.5 50 +22 +22 комфорт 1012.5 986.3 +1.7
03 20.08 С 6 10 км ясно +23.7 +10.5 43 +25 +26 комфорт 1012.9 987.0
06 20.08 С 10 10 км ясно +30.8 +10.4 28 +31 +31 жарко 1012.7 987.4 +19.1
09 20.08 С 8 10 км ясно +34.0 +8.0 20 +32 +35 жарко 1011.4 986.3
12 20.08 С 6 10 км ясно +34.6 +9.0 21 +33 +35 жарко 1010.0 985.1
15 20.08 С 5 10 км ясно +28.2 +8.2 28 +28 +28 жарко 1010.2 984.8 +35.0
18 20.08 В 3 10 км ясно +23.3 +8.8 40 +25 +25 комфорт 1011.5 985.6 +35.0
21 20.08 С 3 10 км ясно +22.0 +8.4 42 +23 +23 комфорт 1010.8 984.8
00 21.08 С 6 10 км ясно +21.2 +8.8 45 +22 +22 комфорт 1010.3 984.2
03 21.08 С 5 10 км ясно +24.0 +11.0 44 +25 +27 комфорт 1010.8 985.1
06 21.08 С 8 10 км ясно +32.0 +11.3 28 +32 +35 жарко 1010.5 985.4 +19.5
09 21.08 С 9 4000 м пыльная буря {метель} ясно +36.0 +9.9 20 +35 +36 очень
жарко
1009.0 984.2
12 21.08 С 5 10 км {метель} ясно +36.0 +11.0 22 +35 +38 очень
жарко
1007.6 982.9
15 21.08 С 4 10 км ясно +31.0 +12.0 31 +31 +31 жарко 1007.9 982.8 +36.7
18 21.08 С 4 10 км ясно +26.5 +10.0 35 +27 +27 жарко 1008.5 982.9 +36.7
21 21.08 С 4 10 км ясно +25.0 +10.3 40 +26 +26 жарко 1007.8 982.2
00 22.08 С 5 10 км ясно +22.0 +9.8 46 +24 +24 комфорт 1008.0 982.1 +2.2
03 22.08 С 5 10 км ясно +25.4 +10.6 39 +26 +28 жарко 1008.9 983.2
06 22.08 С 6 10 км ясно +32.3 +13.7 32 +33 +39 жарко 1008.5 983.5 +19.8
09 22.08 С 7 10 км ясно +36.6 +10.2 20 +35 +40 очень
жарко
1006.9 982.2
12 22.08 С 6 10 км ясно +36.8 +10.5 20 +36 +37 очень
жарко
1006.2 981.5
15 22.08 С 3 10 км ясно +31.1 +14.6 37 +33 +33 душно 1006.7 981.6 +37.1
18 22.08 С 3 10 км ясно +28.4 +11.4 35 +29 +29 жарко 1006.9 981.6 +37.1
21 22.08 В 2 10 км ясно +23.0 +10.5 45 +25 +25 комфорт 1007.9 982.1
00 23.08 С 3 10 км ясно +23.0 +8.8 40 +24 +24 комфорт 1008.3 982.5
03 23.08 С 5 10 км ясно +24.4 +11.1 43 +26 +27 жарко 1009.6 983.9
06 23.08 С 7 10 км ясно +32.0 +13.9 33 +33 +37 жарко 1009.5 984.4 +21.4
09 23.08 С 5 10 км ясно +33.4 +10.3 24 +33 +41 жарко 1008.9 983.9
12 23.08 С 7 10 км ясно +33.5 +7.6 20 +32 +33 жарко 1008.7 983.7
15 23.08 С 4 10 км ясно +26.7 +5.6 26 +26 +26 жарко 1010.0 984.4 +33.8
18 23.08 С 4 10 км ясно +22.0 +4.8 33 +22 +22 комфорт 1011.4 985.4 +33.8
21 23.08 С 5 10 км ясно +20.6 +7.4 42 +22 +22 комфорт 1010.4 984.3
00 24.08 С 5 10 км ясно +18.8 +7.4 47 +19 +19 1010.3 984.0 +1.7
03 24.08 С 4 10 км ясно +20.3 +8.9 48 +22 +24 комфорт 1011.3 985.2
06 24.08 С 6 10 км ясно +29.5 +12.5 35 +31 +36 жарко 1011.6 986.2 +17.6
09 24.08 С 10 10 км ясно +33.6 +7.7 20 +32 +33 жарко 1009.7 984.7
12 24.08 С 6 10 км ясно +33.8 +6.8 19 +32 +34 жарко 1008.8 983.8
15 24.08 С 4 10 км ясно +28.5 +12.5 37 +30 +30 жарко 1009.3 983.9 +34.5
18 24.08 С 3 10 км ясно +24.0 +10.3 42 +25 +25 комфорт 1009.8 984.1 +34.5
21 24.08 С 3 10 км ясно +21.6 +9.0 44 +23 +23 комфорт 1009.2 983.2
00 25.08 С 3 10 км ясно +18.9 +9.9 56 +20 +20 1009.3 983.0
03 25.08 С 4 10 км ясно +22.0 +11.9 53 +24 +26 комфорт 1009.9 984.0
06 25.08 С 6 10 км ясно +30.1 +12.3 33 +31 +36 жарко 1009.3 984.1 +18.0
09 25.08 С 4 10 км ясно +35.1 +8.2 19 +33 +43 жарко 1007.2 982.4
12 25.08 С 6 10 км ясно +35.5 +8.4 19 +34 +35 очень
жарко
1006.3 981.6

 

Местоположение метеостанции Бухара (Бухарская область, Узбекистан): широта 39.72 долгота 64.62 высота над уровнем моря 226 м.

В архиве по умолчанию представлена погода в Бухаре за последнюю неделю. Архивные данные за месяц целиком и за предыдущие месяцы, начиная с января 2011 года, Вы можете получить, выбрав интересующий диапазон дат из раскрывающегося списка и нажав кнопку "Ввод!".


*Определитесь, кто Вы:
робот инопланетянин человек

Внимание! Время в таблицах - всемирное. Для получения местного времени необходимо прибавить поправку, которая равна 5 ч.

Смотрите также архив погоды в соседних городах и на ближайших метеорологических станциях:

Погода в Каракуле (Бухарская область, Узбекистан) (70 км)
Погода в Навои (Навоийская область, Узбекистан) (77 км)
Погода в Айякагитме (Узбекистан) (107 км)
Погода в Туркменабаде (Лебапский велаят, Туркменистан) (113 км)
Погода в Нурате (Навоийская область, Узбекистан) (129 км)
Погода в Карши (Кашкадарьинская область, Узбекистан) (139 км)
Погода в Бурдалыке (Лебапский велаят, Туркменистан) (141 км)
Погода на Каттакурган вдхр (Самаркандская область, Узбекистан) (144 км)
Погода в Нурабаде (Самаркандская область, Узбекистан) (146 км)
Погода в Машикудуке (Навоийская область, Узбекистан) (158 км)

Пояснения к столбцам:

Ветер - указаны скорость ветра в м/с - средняя за 10 мин, порывы в срок и между сроками (в фигурных скобках) и направление, откуда дует ветер: С - северный, СВ - северо-восточный, В - восточный, ЮВ - юго-восточный, Ю - южный, ЮЗ - юго-западный, З - западный, СЗ - северо-западный.
Видимость - горизонтальная дальность видимости в метрах или километрах. При видимости от 1 до 10 км при отсутствии осадков обычно наблюдается дымка, при ухудшении видимости до 1 км и менее - туман. В сухую погоду видимость может ухудшаться дымом, пылью или мглою.
Явления - указаны атмосферные явления, наблюдавшиеся в срок или в последний час перед сроком; фигурными скобками обозначены явления, наблюдавшиеся между сроками (за 1-3 часа до срока); квадратными скобками обозначены град или гололедные отложения с указанием их диаметра в мм.
Облачность - указаны через наклонную черту общая и нижняя облачность в баллах и высота нижней границы облаков в метрах; квадратными скобками обозначены формы облаков: Ci - перистые, Cs - перисто-слоистые, Cc - перисто-кучевые, Ac - высококучевые, As - высокослоистые, Sc - слоисто-кучевые, Ns - слоисто-дождевые, Cu - кучевые, Cb - кучево-дождевые. Подробнее классификацию облаков см. в Атласе облаков (PDF).
T - Температура воздуха - температура, измеренная на высоте 2 м над землей.
Td - Температура точки росы - температура, при понижении до которой содержащийся в воздухе водяной пар достигнет насыщения.
f - Относительная влажность воздуха - влажноcть воздуха, измеренная на высоте 2 м над землей.
Te - Эффективная температура - температура, которую ощущает одетый по сезону человек в тени. Характеристика душности погоды. При расчете учитывается влияние влажности воздуха и скорости ветра на теплоощущения человека.
Tes - Эффективная температура на солнце - температура, которую ощущает человек, с поправкой на солнечный нагрев. Характеристика знойности погоды. Зависит от высоты солнца над горизонтом, облачности и скорости ветра. Ночью, в пасмурную погоду, а также при ветре 12 м/с и более поправка равна нулю.
P - Атмосферное давление - приведенное к уровню моря атмосферное давление.
Po - Атмосферное давление - измеренное на уровне метеостанции атмосферное давление.
Tmin - Минимальная температура - минимум температуры воздуха на высоте 2 м над землей.
Tmax - Максимальная температура - максимум температуры воздуха на высоте 2 м над землей.
R - Количество осадков - Количество выпавших осадков за период времени, мм. При наведении курсора мыши на число - период времени, за который выпало указанное количество осадков.
R24 - Количество осадков - Количество выпавших осадков за 24 часа, мм.
S - Снежный покров - Высота снежного покрова, см. При наведении курсора мыши на число - состояние снежного покрова и степень покрытия местности в баллах.